Hourly Data Report for September 23, 2017

All times are specified in Local Standard Time (LST). Add 1 hour to adjust for Daylight Saving Time where and when it is observed.

ST. PETERS
PRINCE EDWARD ISLAND

46°27'01.000" N
62°34'33.000" W
29.70 m
8300562
71310
ZSP

Download Data

Hourly Data (September 2017)
Hourly Data Report for September 23, 2017
Temp Definition
°C
Dew Point Temp Definition
°C
Rel Hum Definition
%
Wind Dir Definition
10's deg

Wind Spd Definition
km/h
Visibility Definition
km
Stn Press Definition
kPa
Hmdx Definition


Wind Chill Definition


Weather Definition


TIME
00:00 11.9 10.4 91 16 8   101.59     LegendNANA
01:00 11.6 10.5 93 17 9   101.58     LegendNANA
02:00 11.3 10.4 95 17 13   101.48     LegendNANA
03:00 11.5 10.3 92 17 11   101.43     LegendNANA
04:00 11.6 10.5 93 18 14   101.37     LegendNANA
05:00 11.5 10.0 91 19 12   101.32     LegendNANA
06:00 11.1 9.3 89 18 15   101.27     LegendNANA
07:00 11.9 9.0 82 20 13   101.25     LegendNANA
08:00 14.7 10.3 75 20 9   101.26     LegendNANA
09:00 17.9 11.4 66 21 16   101.21     LegendNANA
10:00 19.7 14.1 70 22 22   101.14     LegendNANA
11:00 21.1 14.8 67 21 28   101.02 25   LegendNANA
12:00 22.5 14.8 62 23 22   101.05 26   LegendNANA
13:00 23.6 15.5 60 23 25   100.95 28   LegendNANA
14:00 24.2 15.4 58 23 25   100.92 28   LegendNANA
15:00 25.2 16.1 57 24 21   100.87 30   LegendNANA
16:00 25.1 14.0 50 28 16   100.91 28   LegendNANA
17:00 22.9 11.1 47 28 12   100.99 25   LegendNANA
18:00 19.0 13.5 71 36 14   101.15     LegendNANA
19:00 17.1 12.7 76 3 9   101.23     LegendNANA
20:00 16.7 12.3 75 3 7   101.29     LegendNANA
21:00 15.6 12.0 79 3 5   101.35     LegendNANA
22:00 15.3 12.5 83 3 8   101.44     LegendNANA
23:00 14.6 11.9 84 6 7   101.43     LegendNANA

Notes on Data Quality.

Legend

  • E = Estimated
  • M = Missing
  • NA = Not Available
  • ‡ = Partner data that is not subject to review by the National Climate Archives
Date modified: